Temperature
18 19 19 18 22 24 25 24 24 26 25 24 24 24 25 26 26 23 22 22 22 22 22 22 22 22 21 20 20 19 19 19 18 17 17 16 16 16 17 17 17 17 17 17 17 17 17 17 17
18 19 18 20 24 25 25 25 25 25 24 23 23 24 25 25 23 22 22 22 22 22 22 22 22 22 21 21 20 20 19 18 18 17 17 17 16 17 17 17 17 17 17 17 17 16 17 17 17
19 19 20 23 23 25 25 24 25 24 23 24 24 24 24 24 22 22 22 22 22 22 22 22 22 22 21 21 21 20 19 19 18 17 17 17 17 17 16 16 16 16 16 17 16 16 16 16 17
19 19 20 23 24 23 25 24 24 24 24 23 24 24 23 22 22 22 22 22 22 22 22 22 22 21 21 21 20 20 19 18 18 17 16 17 17 16 16 16 16 16 16 17 16 16 16 16 16
19 20 23 23 23 23 24 23 22 24 24 24 23 25 24 22 23 22 22 21 21 21 21 21 21 21 20 20 20 19 19 18 18 17 16 17 16 16 16 16 16 16 16 16 16 16 16 16 16
20 21 23 24 23 23 24 22 22 24 24 24 23 24 24 22 22 22 22 21 21 21 21 21 20 20 19 19 19 19 19 18 18 17 17 17 16 16 15 15 16 16 16 16 16 16 16 16 16
20 22 23 22 22 23 24 22 23 24 24 24 23 24 24 22 22 22 21 21 21 21 21 21 21 20 19 19 19 18 18 18 17 17 17 16 16 15 15 15 15 15 16 16 16 16 16 16 16
19 21 21 22 22 23 23 22 22 22 23 21 21 24 25 22 22 22 21 21 21 21 21 21 21 20 20 19 18 18 18 17 17 17 17 16 15 14 14 14 14 14 15 16 16 16 16 16 16
18 21 22 22 22 23 22 22 22 21 22 22 22 22 22 22 22 21 21 20 21 21 21 21 21 20 19 18 18 17 17 17 17 16 16 16 15 14 14 13 14 14 14 15 15 15 15 15 16
20 21 22 22 22 22 22 21 22 22 23 23 23 22 21 21 21 20 19 19 20 20 21 21 20 20 19 18 17 16 15 15 15 14 14 14 13 13 13 13 15 15 15 15 15 15 15 15 15
19 22 21 20 20 20 21 21 21 22 23 23 23 22 20 20 20 19 19 19 19 20 20 20 20 19 19 18 17 15 15 14 14 14 14 13 13 13 13 13 13 14 15 15 15 15 15 14 14
18 21 20 20 19 19 20 20 21 21 21 21 20 19 19 19 19 18 18 18 19 20 20 19 19 19 18 17 18 16 14 14 14 14 14 14 13 13 13 13 12 13 13 14 15 15 14 14 14
20 20 20 19 19 19 19 19 20 20 20 19 19 19 19 19 18 18 17 18 18 18 18 18 18 18 18 18 17 16 15 14 14 13 14 13 13 13 13 12 12 12 13 13 13 14 14 13 14
19 19 19 19 19 18 19 20 18 22 19 19 19 19 18 18 17 16 17 17 17 17 17 17 18 18 18 18 17 17 16 14 14 13 13 13 13 12 12 12 12 12 12 12 12 13 13 13 14
18 19 21 20 19 18 18 21 21 21 19 20 20 19 18 17 16 16 16 15 15 15 16 17 17 17 17 17 17 16 16 16 15 14 13 13 12 12 12 12 12 12 12 12 12 13 13 13 14
18 20 21 20 19 18 19 21 22 20 19 18 18 17 16 16 15 15 15 15 15 15 16 16 16 16 16 16 16 15 15 15 14 14 13 12 12 12 12 12 12 12 12 12 12 13 13 13 13
20 21 20 20 19 19 19 20 21 18 17 17 17 16 16 15 14 14 14 14 14 14 14 15 15 15 15 15 15 15 14 14 13 13 13 12 12 12 12 12 11 11 12 12 12 12 12 12 13
20 19 19 19 19 18 19 20 20 16 16 16 15 14 14 13 13 13 13 14 13 13 13 13 14 14 14 15 14 14 13 12 12 11 11 11 11 11 11 11 11 11 11 12 12 12 12 12 12
18 18 18 19 17 17 18 18 18 15 14 14 13 13 12 12 12 12 12 13 13 12 13 13 12 13 14 14 13 13 12 11 11 11 10 10 10 11 10 10 10 11 11 11 11 11 11 11 12
17 18 18 18 17 16 17 17 17 15 13 12 12 11 11 10 11 10 11 12 12 12 12 11 12 12 13 13 13 12 11 11 10 10 10 10 10 11 11 10 10 10 11 10 10 10 10 10 11
18 17 17 16 17 17 16 18 16 14 13 11 11 10 10 10 9 9 10 11 12 12 11 11 12 12 13 13 13 12 12 11 10 10 10 10 10 10 10 10 10 10 10 9 10 10 9 9 10
18 15 15 16 16 16 15 18 17 15 13 11 10 10 9 9 8 8 8 9 11 11 11 9 11 11 12 12 12 12 11 10 10 9 9 9 9 9 9 9 9 9 9 9 9 9 9 9 9
16 15 15 15 15 15 16 16 18 15 12 10 10 9 9 8 7 7 7 7 8 9 10 9 10 11 11 11 11 11 10 10 9 9 9 9 8 9 8 8 8 8 8 8 9 9 9 9 8
14 16 17 14 15 16 15 15 17 14 10 9 9 9 8 7 7 7 7 7 7 7 8 8 8 10 10 10 10 10 10 9 9 8 8 8 8 8 8 8 8 8 7 8 8 8 8 8 8
15 15 17 18 17 17 14 14 14 9 8 8 8 8 8 8 7 7 6 6 6 6 7 6 7 7 8 8 9 9 9 9 9 8 8 8 8 7 7 7 7 7 7 7 7 7 7 7 7
13 13 14 14 15 16 15 14 12 8 7 8 8 8 8 7 7 6 6 5 5 5 5 5 6 6 6 7 8 9 9 9 9 8 8 8 7 7 7 7 7 6 6 6 7 7 7 7 7
11 13 12 13 13 12 15 14 10 8 9 9 8 8 7 6 6 6 5 5 5 4 4 4 4 5 6 6 7 8 8 8 8 8 8 8 7 7 7 7 6 6 6 6 6 6 6 6 6
10 11 8 11 12 12 14 15 14 10 9 9 9 8 7 6 6 5 5 4 4 4 4 3 3 3 5 6 6 6 7 7 8 8 8 8 7 7 6 6 6 6 6 5 6 6 6 6 6
11 11 11 11 11 11 11 12 9 9 9 8 8 7 6 5 5 5 5 5 4 4 3 2 2 2 3 5 5 5 5 6 7 8 8 7 7 6 5 5 5 5 5 4 4 4 4 4 5
9 10 10 9 10 9 9 10 10 10 8 7 6 6 5 5 4 5 4 4 4 3 2 1 1 1 1 2 3 4 4 4 5 6 7 6 6 5 5 4 4 3 3 3 2 2 2 2 3
Wind_Speed
1 2 3 3 4 4 4 3 1 3 2 0 1 2 3 3 3 1 2 3 1 2 9 12 13 12 12 11 11 10 10 8 7 6 6 5 5 5 6 6 8 9 9 8 6 7 8 8 7
2 2 3 3 4 4 5 3 3 1 2 1 1 2 2 1 2 2 3 4 1 3 8 10 14 13 12 12 11 11 10 8 8 8 6 4 4 5 6 6 8 8 8 7 7 7 8 8 9
2 2 3 3 4 2 2 2 2 4 4 3 2 2 2 0 2 1 2 7 2 3 6 8 13 13 12 12 12 12 11 10 8 9 7 6 5 5 4 3 4 5 6 6 6 7 8 9 8
2 2 2 4 4 2 2 2 6 6 1 2 3 3 2 1 1 2 7 7 3 3 5 7 10 12 11 11 11 10 10 10 7 7 8 6 5 2 1 1 1 2 3 4 5 7 7 8 9
1 3 3 5 4 3 5 7 7 7 3 1 3 4 3 2 2 4 7 6 4 3 3 5 8 9 10 10 10 10 10 9 7 6 6 6 6 4 3 2 1 1 3 4 5 6 8 9 11
2 2 4 5 5 6 5 4 6 7 5 3 4 5 4 2 3 1 5 4 2 2 2 3 7 9 10 10 11 11 10 10 8 8 7 7 6 5 4 3 3 2 2 4 6 6 8 9 10
3 3 3 5 6 5 2 4 5 6 6 3 3 6 3 3 3 1 3 4 4 2 2 3 6 9 9 10 11 10 10 9 8 8 7 6 7 6 4 4 4 4 3 4 6 6 7 8 9
2 3 3 3 4 3 2 4 3 5 5 2 3 5 4 2 3 2 1 2 3 3 1 3 6 8 9 10 11 10 9 10 9 8 5 2 4 2 1 3 1 2 2 3 5 7 7 7 8
2 4 5 3 4 3 2 5 4 4 7 5 5 7 4 0 3 5 5 4 3 1 1 1 5 7 9 9 9 10 9 9 8 8 7 6 6 5 5 3 2 4 4 4 5 6 6 7 9
4 4 4 3 4 6 8 9 10 8 10 11 12 11 6 5 7 9 9 8 6 3 2 3 4 6 7 8 7 8 8 9 9 9 8 8 7 6 3 4 2 6 6 7 7 7 7 7 9
3 4 3 4 6 7 10 11 8 10 13 14 15 14 8 8 9 10 9 8 5 3 2 3 4 4 5 5 4 5 6 6 7 7 7 7 6 5 4 6 6 7 8 9 10 10 10 10 9
5 7 7 5 5 8 10 11 11 12 15 15 14 12 12 11 10 10 9 7 4 3 2 3 2 1 3 5 4 4 5 5 6 7 8 7 6 5 5 5 5 6 6 7 8 8 10 11 11
8 7 7 9 11 10 10 11 10 12 10 9 9 9 11 11 10 9 7 5 4 4 1 2 1 2 4 4 4 4 5 5 6 6 7 7 6 6 5 4 4 4 4 6 7 9 11 11 10
3 7 10 9 8 4 6 7 3 5 5 9 10 13 13 10 9 8 8 7 6 5 3 1 0 2 5 5 5 4 4 4 5 6 7 7 6 4 3 2 3 4 4 6 7 9 10 10 8
4 8 8 2 2 3 6 7 3 8 12 14 16 15 13 10 8 9 9 8 8 6 5 4 3 2 4 5 4 3 3 4 4 5 6 7 6 6 5 4 4 4 5 6 6 7 7 6 6
4 4 3 2 4 4 7 8 10 15 17 15 14 14 13 13 11 8 9 9 9 8 8 7 5 6 5 3 3 3 3 3 4 4 5 6 7 8 7 6 5 5 5 6 6 5 6 7 6
3 4 5 3 5 6 6 10 14 18 12 13 17 19 20 21 22 18 10 10 10 11 10 9 8 7 6 5 4 3 3 3 3 4 4 6 7 7 6 6 6 5 6 6 6 6 6 6 6
5 7 7 8 6 8 9 11 13 15 15 17 19 21 22 23 24 23 17 10 10 10 10 11 9 8 6 5 4 4 4 4 4 4 3 4 5 5 5 4 4 5 4 4 4 7 5 5 6
5 8 11 10 4 6 10 12 7 12 15 17 19 21 22 22 24 25 23 16 10 10 11 12 11 10 8 6 6 6 5 5 5 3 3 3 4 5 5 4 3 4 4 4 4 3 4 2 2
9 12 11 3 2 6 10 10 7 12 14 17 18 20 21 24 26 27 26 22 15 12 13 13 13 12 11 8 7 5 5 5 4 4 4 3 3 3 3 4 4 3 3 4 4 5 4 2 3
10 8 7 10 14 7 6 5 12 10 13 16 18 19 23 25 26 27 27 27 22 16 13 13 13 12 12 9 6 5 4 5 6 6 5 4 4 4 4 4 4 4 4 4 4 4 4 3 2
6 4 11 16 13 5 3 3 11 8 10 16 19 21 23 23 23 25 27 29 29 23 15 13 12 12 11 10 8 9 9 9 10 8 6 4 4 4 4 4 4 4 5 5 5 4 3 4 4
6 13 15 15 11 7 3 5 5 5 7 16 19 21 21 20 21 23 25 26 26 25 18 13 13 12 11 10 10 10 10 10 8 8 7 6 5 5 4 4 4 4 5 5 5 5 5 5 5
10 14 12 5 5 4 3 2 2 4 8 13 18 20 19 18 19 22 24 24 24 25 23 18 16 15 14 12 11 11 11 11 10 9 8 7 6 5 4 4 4 4 5 5 5 5 6 6 6
12 13 6 3 4 3 3 5 1 8 8 12 16 18 17 17 19 22 24 25 26 27 26 23 20 18 17 14 13 12 11 11 11 10 8 8 6 6 5 4 4 5 5 6 6 6 7 8 8
7 6 5 6 10 12 10 5 3 8 7 11 14 18 18 19 21 21 22 23 23 24 24 24 23 21 19 18 16 14 13 11 10 10 8 7 5 4 2 3 4 5 6 6 6 6 7 7 9
3 2 2 6 9 9 4 2 5 4 9 17 21 24 24 24 23 22 23 23 23 23 23 23 23 23 21 21 21 17 14 13 12 9 7 5 3 1 2 3 4 5 6 6 6 6 7 7 8
3 2 2 2 5 9 14 14 3 6 19 26 28 26 24 25 23 22 23 24 24 23 22 22 22 21 22 21 19 15 12 12 11 8 7 5 4 1 3 4 5 7 8 8 8 7 7 7 8
4 1 1 3 5 7 12 8 7 14 24 27 29 27 27 26 22 22 26 26 24 23 22 22 23 24 22 21 17 16 15 14 11 9 7 5 5 1 3 4 6 7 8 9 9 9 8 9 8
1 2 3 6 8 9 11 11 7 23 26 27 29 29 27 23 25 28 29 27 24 21 20 19 21 21 21 21 13 11 11 9 10 9 7 5 6 3 2 3 4 5 6 7 7 8 8 8 7
Wind_Direction
329 257 259 248 230 224 182 167 209 199 201 288 302 292 321 347 334 351 94 37 294 120 151 163 174 179 184 190 194 199 206 211 214 219 238 251 237 244 236 218 216 210 212 217 222 222 220 219 220
323 288 254 247 244 205 157 162 197 204 358 328 220 249 252 47 56 115 143 17 318 143 155 167 167 181 186 191 196 203 206 214 229 234 228 258 275 265 250 210 214 216 219 224 231 227 228 225 219
264 293 278 258 244 236 122 119 29 320 302 261 246 263 294 201 166 184 27 345 298 167 163 162 164 184 192 196 200 205 210 220 226 237 228 231 253 266 244 212 213 223 218 217 227 228 230 232 224
263 243 234 254 255 297 318 5 335 313 255 254 280 258 242 255 297 344 340 328 269 185 168 159 178 190 200 206 210 216 222 228 225 240 231 223 237 250 204 125 210 263 239 222 227 230 233 233 224
240 261 252 252 264 283 296 308 312 296 281 273 273 273 257 187 254 324 337 324 272 211 178 167 182 199 207 214 219 223 229 229 222 242 230 225 235 236 243 180 149 274 242 250 257 249 241 232 222
208 258 252 254 261 284 293 309 306 280 269 260 258 269 267 159 201 14 357 355 331 270 183 181 177 206 210 214 220 224 229 223 222 235 243 238 241 240 239 222 214 244 256 254 259 260 253 241 228
237 247 271 279 285 289 314 335 306 311 286 288 292 277 273 190 163 107 37 38 50 61 190 209 206 205 214 218 220 224 227 227 224 230 247 249 235 227 242 267 233 228 247 281 276 263 262 249 238
255 254 255 257 276 275 0 333 324 317 315 310 270 278 303 64 150 171 99 42 54 67 118 227 230 222 221 217 212 216 219 219 213 214 233 291 283 277 266 307 303 309 301 302 311 282 262 257 250
215 239 248 240 245 256 316 326 320 309 278 270 255 279 310 221 205 223 237 243 248 228 25 274 248 237 232 230 210 210 212 217 214 210 208 220 235 241 247 256 4 301 300 300 305 316 304 276 258
221 244 258 265 271 296 309 311 311 295 283 284 277 267 255 250 238 240 245 256 264 274 306 317 297 263 241 231 226 219 209 211 211 212 217 226 233 237 273 297 273 270 268 265 264 277 292 272 251
229 259 290 279 276 290 296 301 300 290 294 300 303 308 305 262 248 243 242 253 274 298 313 327 321 293 245 219 228 212 206 210 215 221 227 233 239 242 248 256 247 251 238 249 247 250 251 250 248
248 258 269 288 291 287 291 299 293 287 287 308 306 304 300 278 253 240 239 244 246 250 304 341 340 341 201 191 182 206 199 202 212 216 224 228 231 240 247 256 259 256 252 249 248 251 247 248 247
244 273 273 272 287 290 291 289 296 280 299 322 324 313 303 287 260 241 241 241 235 236 258 357 4 118 144 165 170 189 197 204 215 219 226 234 241 246 245 244 246 251 247 247 247 241 236 235 236
284 279 285 295 290 279 286 289 282 294 332 321 335 336 325 304 275 250 237 234 232 232 235 264 238 146 150 159 172 179 197 213 226 232 228 229 243 253 260 250 249 260 258 254 249 243 239 233 217
274 285 282 241 338 15 314 283 268 350 335 326 330 333 335 326 297 266 255 250 243 234 235 238 237 209 171 162 168 179 189 213 227 239 237 226 220 217 207 206 215 225 246 258 251 253 248 240 217
256 258 273 90 10 31 333 316 333 349 342 349 6 13 15 12 355 312 274 257 245 238 235 235 237 238 227 206 193 196 197 213 220 233 233 229 223 215 217 222 229 227 228 239 236 228 221 216 206
230 294 322 345 51 4 337 316 344 8 20 46 45 42 38 32 21 5 323 272 252 242 240 237 234 236 230 224 221 218 211 218 213 223 233 230 222 217 222 240 246 244 243 242 239 229 229 211 201
327 317 317 316 352 345 320 317 6 47 57 54 45 37 33 28 21 12 359 315 273 258 249 243 236 233 225 219 217 212 208 211 210 211 213 212 205 202 213 225 225 226 234 242 251 241 226 232 223
317 303 300 310 355 330 319 316 19 69 55 51 44 38 31 26 20 15 10 355 311 272 254 244 239 232 223 217 215 214 211 205 198 190 197 209 204 203 211 211 207 211 210 207 211 209 208 202 226
301 299 309 312 329 313 311 304 114 90 66 55 45 33 24 20 16 11 9 4 342 297 265 248 241 237 232 231 231 232 212 200 179 156 143 146 157 166 185 198 202 199 190 178 184 189 187 183 194
306 305 319 312 315 298 299 212 147 114 69 50 41 32 27 22 13 9 6 4 356 334 284 254 246 242 237 230 214 200 188 186 185 185 172 154 152 151 155 167 185 191 196 186 174 178 198 194 194
316 339 304 301 307 310 351 225 175 147 61 36 27 22 20 16 11 9 6 4 0 346 312 273 263 254 244 231 221 216 218 216 209 202 193 182 185 181 170 171 181 195 200 192 187 186 195 205 210
326 314 294 295 286 276 214 235 172 138 40 24 17 14 15 12 7 7 6 2 359 356 340 297 284 269 253 243 243 240 239 234 218 209 206 207 200 197 190 193 197 207 211 206 201 204 206 213 211
316 310 291 260 253 244 142 279 243 68 32 16 13 11 8 6 2 2 2 358 356 358 356 332 294 282 268 256 249 243 237 225 214 213 216 217 208 192 191 198 203 216 225 228 222 221 224 225 230
348 343 322 266 264 325 114 284 108 99 52 20 8 359 356 356 357 358 358 356 356 355 353 347 326 300 286 275 264 251 241 228 217 215 221 223 211 200 194 219 232 245 249 251 244 232 228 228 232
358 354 341 313 311 308 294 278 109 118 48 8 355 347 350 353 355 352 350 348 345 344 345 343 336 319 300 284 266 254 244 234 226 220 214 218 219 215 222 255 267 270 270 267 259 250 243 235 232
333 349 344 289 290 291 282 219 163 152 356 356 353 349 349 347 343 340 339 336 334 331 332 337 336 326 311 296 272 251 253 251 238 222 216 194 184 206 277 296 292 286 285 282 277 265 261 254 249
13 6 297 267 303 300 297 302 353 21 357 353 348 345 338 332 330 332 331 328 327 327 326 329 331 325 314 298 278 258 239 242 240 217 194 160 133 70 305 319 309 301 296 292 288 282 280 274 264
323 342 11 302 279 290 304 311 80 17 355 346 340 338 333 332 328 325 326 325 321 320 325 327 330 329 324 310 271 237 225 215 202 204 174 153 124 73 326 327 313 308 303 293 285 278 276 271 268
251 68 15 316 290 278 281 285 40 358 350 343 335 331 330 328 323 321 322 320 317 319 324 324 329 332 332 324 286 224 195 205 211 192 157 154 123 108 22 341 327 325 319 311 298 281 275 271 271
Height
1524 1523 1522 1523 1520 1513 1507 1507 1506 1505 1506 1507 1508 1507 1504 1505 1506 1513 1511 1508 1508 1507 1507 1507 1507 1507 1507 1507 1508 1510 1510 1511 1512 1513 1514 1514 1515 1516 1516 1516 1516 1516 1517 1517 1517 1518 1518 1519 1520
1523 1523 1524 1522 1511 1507 1505 1504 1504 1505 1507 1508 1508 1507 1505 1505 1508 1509 1509 1508 1508 1508 1507 1507 1507 1507 1507 1507 1508 1508 1509 1510 1511 1512 1512 1513 1514 1514 1514 1514 1515 1516 1517 1517 1517 1517 1517 1518 1518
1523 1523 1524 1518 1512 1505 1505 1505 1506 1507 1507 1507 1506 1507 1506 1507 1508 1508 1508 1507 1508 1508 1507 1507 1507 1507 1507 1507 1507 1507 1508 1509 1510 1510 1511 1511 1512 1513 1513 1513 1514 1515 1515 1515 1515 1516 1516 1517 1517
1524 1525 1523 1517 1510 1510 1507 1506 1508 1507 1507 1507 1506 1505 1507 1507 1507 1506 1506 1507 1507 1507 1507 1507 1507 1507 1506 1506 1506 1506 1507 1508 1508 1509 1509 1510 1510 1511 1511 1512 1512 1513 1513 1513 1514 1514 1515 1515 1516
1524 1524 1518 1516 1512 1511 1509 1510 1510 1508 1508 1508 1507 1504 1506 1505 1505 1505 1506 1506 1507 1507 1507 1506 1506 1505 1505 1505 1505 1506 1506 1506 1506 1507 1508 1508 1509 1509 1510 1510 1510 1510 1511 1511 1512 1513 1513 1514 1514
1525 1523 1516 1513 1512 1510 1509 1510 1510 1508 1508 1508 1507 1505 1505 1504 1504 1504 1505 1505 1505 1505 1505 1505 1504 1504 1504 1504 1504 1504 1504 1504 1504 1505 1505 1506 1507 1508 1508 1508 1508 1508 1509 1509 1510 1510 1511 1511 1512
1525 1520 1516 1518 1514 1511 1510 1511 1509 1508 1507 1507 1507 1504 1503 1504 1503 1503 1504 1504 1503 1503 1503 1503 1503 1502 1502 1502 1502 1502 1502 1502 1502 1503 1503 1503 1504 1505 1505 1507 1506 1506 1506 1507 1508 1508 1508 1509 1510
1524 1522 1519 1515 1515 1512 1512 1511 1510 1509 1507 1508 1507 1504 1502 1504 1502 1502 1502 1502 1502 1502 1502 1501 1501 1500 1499 1499 1499 1499 1500 1500 1500 1500 1500 1501 1501 1502 1502 1503 1504 1503 1503 1504 1505 1506 1506 1507 1508
1524 1522 1517 1515 1515 1511 1512 1511 1510 1509 1508 1507 1505 1504 1503 1501 1500 1500 1500 1501 1500 1500 1499 1499 1498 1497 1496 1496 1497 1497 1497 1497 1497 1497 1497 1498 1498 1499 1498 1500 1499 1499 1499 1500 1501 1503 1503 1504 1505
1522 1519 1514 1514 1514 1512 1512 1512 1510 1508 1505 1504 1502 1502 1500 1499 1498 1498 1498 1499 1498 1497 1496 1496 1495 1494 1493 1493 1494 1494 1495 1495 1496 1496 1496 1496 1496 1496 1495 1495 1495 1496 1496 1496 1497 1498 1499 1500 1502
1521 1515 1515 1515 1515 1514 1512 1510 1509 1506 1503 1502 1500 1499 1499 1497 1496 1495 1495 1496 1495 1495 1494 1493 1493 1492 1491 1490 1491 1492 1492 1493 1494 1494 1494 1493 1493 1493 1492 1492 1491 1491 1491 1492 1493 1494 1495 1497 1498
1521 1517 1516 1515 1515 1513 1511 1509 1507 1504 1502 1500 1498 1497 1496 1495 1494 1493 1493 1494 1493 1493 1492 1492 1491 1490 1489 1488 1488 1489 1489 1490 1490 1491 1490 1490 1490 1489 1489 1489 1488 1487 1487 1487 1488 1489 1490 1492 1494
1519 1516 1515 1515 1513 1511 1510 1507 1505 1501 1500 1498 1496 1494 1493 1492 1491 1491 1491 1491 1492 1491 1491 1490 1489 1488 1488 1487 1486 1486 1487 1487 1488 1488 1487 1487 1486 1486 1486 1485 1485 1485 1484 1484 1484 1484 1485 1487 1490
1517 1516 1514 1513 1511 1510 1508 1504 1504 1497 1498 1497 1496 1494 1492 1490 1489 1489 1489 1490 1490 1490 1490 1489 1488 1487 1486 1486 1485 1485 1485 1485 1485 1485 1484 1484 1483 1483 1483 1482 1481 1481 1481 1481 1481 1482 1483 1484 1485
1517 1515 1509 1509 1509 1509 1509 1501 1500 1498 1498 1496 1494 1492 1490 1488 1487 1488 1489 1489 1489 1489 1489 1488 1487 1486 1485 1485 1484 1484 1484 1483 1483 1481 1481 1480 1480 1480 1480 1479 1478 1478 1478 1479 1479 1478 1479 1480 1481
1515 1511 1507 1508 1509 1510 1512 1501 1498 1500 1498 1496 1494 1492 1490 1489 1488 1487 1487 1487 1487 1487 1487 1487 1486 1486 1485 1484 1483 1482 1481 1480 1479 1478 1477 1476 1476 1476 1476 1476 1476 1475 1475 1475 1475 1474 1475 1475 1477
1510 1506 1509 1508 1511 1511 1509 1504 1500 1501 1499 1498 1497 1494 1493 1492 1489 1486 1485 1485 1485 1485 1485 1484 1484 1484 1483 1482 1480 1480 1478 1477 1476 1474 1473 1472 1472 1472 1472 1472 1471 1471 1471 1470 1471 1471 1471 1471 1473
1512 1513 1513 1512 1511 1513 1508 1503 1503 1508 1504 1502 1501 1499 1497 1495 1492 1489 1485 1484 1484 1483 1483 1482 1482 1481 1481 1479 1478 1477 1476 1474 1473 1472 1471 1470 1469 1469 1469 1469 1468 1467 1467 1466 1466 1467 1467 1468 1469
1520 1518 1514 1510 1513 1514 1507 1505 1505 1511 1510 1507 1506 1504 1503 1500 1497 1491 1486 1482 1481 1480 1480 1480 1479 1479 1478 1476 1474 1473 1472 1470 1469 1468 1467 1467 1467 1466 1466 1466 1466 1465 1464 1463 1463 1463 1463 1464 1465
1519 1516 1511 1512 1513 1513 1507 1504 1505 1512 1513 1512 1511 1509 1507 1499 1494 1491 1487 1484 1481 1479 1478 1477 1476 1475 1475 1474 1472 1470 1469 1467 1466 1465 1464 1464 1464 1464 1463 1463 1464 1463 1462 1461 1460 1461 1461 1461 1462
1516 1517 1516 1517 1511 1508 1509 1500 1507 1512 1514 1514 1512 1511 1506 1501 1498 1493 1487 1484 1479 1476 1474 1473 1474 1473 1472 1470 1468 1467 1465 1464 1463 1463 1462 1461 1461 1461 1461 1460 1461 1460 1460 1460 1458 1459 1460 1460 1460
1517 1521 1519 1514 1512 1505 1513 1500 1498 1506 1510 1513 1512 1509 1505 1503 1501 1496 1489 1481 1478 1475 1471 1470 1470 1470 1469 1467 1465 1463 1462 1461 1460 1460 1459 1458 1459 1458 1458 1458 1458 1458 1457 1456 1456 1456 1457 1458 1458
1521 1520 1515 1512 1510 1508 1504 1502 1488 1501 1508 1514 1514 1511 1508 1507 1503 1498 1492 1488 1484 1477 1470 1468 1467 1466 1465 1463 1462 1459 1458 1457 1456 1456 1455 1455 1454 1454 1454 1454 1454 1455 1455 1454 1452 1453 1454 1455 1455
1525 1515 1506 1512 1507 1500 1501 1503 1489 1503 1518 1518 1516 1512 1510 1507 1504 1499 1494 1490 1484 1477 1470 1466 1464 1462 1461 1458 1456 1455 1453 1453 1452 1452 1452 1453 1452 1450 1450 1451 1450 1451 1452 1452 1450 1450 1451 1452 1453
1525 1519 1508 1497 1493 1492 1503 1505 1499 1518 1521 1521 1519 1516 1513 1508 1503 1498 1493 1488 1481 1476 1471 1466 1461 1458 1457 1455 1453 1452 1451 1450 1448 1448 1448 1449 1449 1448 1449 1448 1448 1449 1449 1449 1448 1448 1449 1449 1449
1533 1532 1529 1523 1507 1498 1497 1499 1505 1520 1523 1522 1520 1516 1511 1507 1502 1498 1494 1489 1484 1478 1472 1465 1460 1455 1453 1451 1448 1447 1447 1446 1445 1443 1443 1444 1444 1444 1445 1445 1445 1445 1445 1445 1445 1445 1445 1444 1445
1538 1532 1537 1530 1516 1515 1492 1498 1512 1519 1517 1516 1513 1508 1504 1501 1499 1496 1492 1486 1480 1474 1468 1463 1456 1449 1446 1444 1444 1442 1442 1442 1441 1440 1439 1438 1439 1439 1440 1440 1440 1440 1440 1440 1440 1440 1440 1440 1440
1542 1540 1548 1533 1522 1511 1490 1487 1493 1508 1509 1509 1509 1508 1505 1502 1497 1493 1488 1482 1476 1469 1463 1457 1452 1445 1438 1434 1435 1435 1435 1438 1437 1435 1433 1432 1433 1435 1437 1435 1435 1436 1435 1435 1434 1434 1433 1433 1435
1541 1540 1540 1537 1531 1525 1511 1495 1510 1511 1512 1511 1509 1507 1504 1499 1494 1488 1483 1477 1470 1464 1458 1451 1445 1437 1429 1422 1421 1423 1426 1429 1428 1427 1426 1427 1428 1431 1431 1430 1430 1429 1429 1428 1426 1426 1426 1426 1427
1546 1544 1543 1544 1536 1532 1525 1511 1509 1508 1512 1511 1508 1503 1499 1495 1491 1484 1478 1471 1465 1458 1452 1446 1439 1431 1422 1415 1411 1412 1414 1419 1420 1420 1420 1423 1422 1424 1425 1425 1424 1422 1421 1420 1419 1418 1418 1419 1420